Find Starlink 37764

NORAD ID: 100414 Int'l Des: 2026-192 Owner: SPXS Country: US Constellation: starlink operational

Aktuelle Ansicht

3D-Globus wird geladen...

About Starlink 37764

Starlink 37764 (NORAD 100414) is a starlink constellation satellite launched Aug 21, 2026 by SPXS of US. with a mass of 575.00 kg.

Nächste Überflüge

Passes for default location (London). Set your location on the main map for personalized predictions.

Höhenverlauf

Loading altitude history...

Zweizeiliger Elementsatz

1 A0414U 26192L 26262.93555182 .00027117 00000-0 49288-3 0 9997
2 A0414 53.1596 308.6245 0001072 37.8432 322.2652 15.49369635 5823
Epoch: 19. Sept. 2026 • Age: 18 hours

Aktueller Status

Höhe 429.5 km
Apogäum / Perigäum N/A
Geschwindigkeit 7.65 km/s
Subsatellitenpunkt -32.92°S, 92.28°W
Startdatum 21. Aug. 2026
Alter 30 days
Typ internet

Technische Details

Klassifizierung Payload
Masse 575.00 kg
Trockenmasse 530.00 kg
Länge 0.30 m
Spannweite 29.00 m
Form ? Box + pan
Hersteller SPXS
Bus-Typ Starlink V2MO
Phasenstatus In Orbit
Besitzer/Staat SPXS/US

Most Searched